| time (UTC) | temp C | wind direction | speed KPH | gust KPH | rain 1hr cm | rain 24hr cm | rain mn cm | humidity % | barometer mb |
| 20260906210056 | 20 | 169 | 3.2 | 8.0 | 0.00 | 0.00 | 0.00 | 70 | 1020.8 |
| 20260906204511 | 20 | 74 | 1.6 | 9.7 | 0.00 | 0.00 | 0.00 | 70 | 1020.7 |
| 20260906203011 | 20 | 32 | 1.6 | 9.7 | 0.00 | 0.00 | 0.00 | 70 | 1020.6 |
| 20260906201521 | 20 | 14 | 3.2 | 8.0 | 0.00 | 0.00 | 0.00 | 71 | 1020.5 |
| 20260906200011 | 20 | 165 | 3.2 | 12.9 | 0.00 | 0.00 | 0.00 | 72 | 1020.6 |
| 20260906194509 | 20 | 120 | 1.6 | 14.5 | 0.00 | 0.00 | 0.00 | 71 | 1020.7 |
| 20260906193030 | 20 | 136 | 4.8 | 17.7 | 0.00 | 0.00 | 0.00 | 71 | 1020.8 |
| 20260906191522 | 20 | 360 | 3.2 | 14.5 | 0.00 | 0.00 | 0.00 | 71 | 1020.8 |
| 20260906190019 | 20 | 33 | 0.0 | 22.5 | 0.00 | 0.00 | 0.00 | 73 | 1020.7 |
| 20260906184541 | 20 | 200 | 1.6 | 9.7 | 0.00 | 0.00 | 0.00 | 74 | 1020.8 |
| 20260906183047 | 20 | 23 | 3.2 | 12.9 | 0.00 | 0.00 | 0.00 | 73 | 1020.8 |
| 20260906181557 | 20 | 9 | 4.8 | 9.7 | 0.00 | 0.00 | 0.00 | 75 | 1020.8 |
| 20260906180017 | 20 | 94 | 3.2 | 19.3 | 0.00 | 0.00 | 0.00 | 74 | 1020.8 |
| 20260906174507 | 20 | 345 | 1.6 | 16.1 | 0.00 | 0.00 | 0.00 | 75 | 1020.7 |
| 20260906173053 | 20 | 38 | 3.2 | 12.9 | 0.00 | 0.00 | 0.00 | 76 | 1020.7 |
| 20260906171542 | 20 | 61 | 1.6 | 8.0 | 0.00 | 0.00 | 0.00 | 76 | 1020.8 |
| 20260906170031 | 19 | 168 | 3.2 | 9.7 | 0.00 | 0.00 | 0.00 | 79 | 1020.8 |
| 20260906164530 | 19 | 35 | 4.8 | 14.5 | 0.00 | 0.00 | 0.00 | 79 | 1020.7 |
| 20260906163045 | 18 | 123 | 1.6 | 11.3 | 0.00 | 0.00 | 0.00 | 84 | 1020.6 |
| 20260906161545 | 18 | 42 | 4.8 | 14.5 | 0.00 | 0.00 | 0.00 | 81 | 1020.6 |
| 20260906160039 | 19 | 246 | 3.2 | 16.1 | 0.00 | 0.00 | 0.00 | 79 | 1020.7 |
| 20260906154540 | 19 | 34 | 4.8 | 9.7 | 0.00 | 0.00 | 0.00 | 78 | 1020.6 |
| 20260906153031 | 19 | 51 | 1.6 | 8.0 | 0.00 | 0.00 | 0.00 | 78 | 1020.4 |
| 20260906151537 | 19 | 21 | 3.2 | 14.5 | 0.00 | 0.00 | 0.00 | 81 | 1020.3 |
| 20260906150027 | 18 | 342 | 3.2 | 16.1 | 0.00 | 0.00 | 0.00 | 81 | 1020.2 |
| 20260906144527 | 18 | 30 | 4.8 | 16.1 | 0.00 | 0.00 | 0.00 | 84 | 1020.2 |
| 20260906143014 | 18 | 20 | 1.6 | 6.4 | 0.00 | 0.00 | 0.00 | 85 | 1020.3 |
| 20260906141516 | 18 | 5 | 4.8 | 17.7 | 0.00 | 0.00 | 0.00 | 88 | 1020.3 |
| 20260906140036 | 18 | 350 | 3.2 | 9.7 | 0.00 | 0.00 | 0.00 | 91 | 1020.1 |
| 20260906134504 | 18 | 15 | 1.6 | 9.7 | 0.00 | 0.00 | 0.00 | 92 | 1019.8 |
| 20260906133049 | 18 | 25 | 3.2 | 12.9 | 0.00 | 0.00 | 0.00 | 95 | 1019.8 |
| 20260906131540 | 17 | 306 | 4.8 | 12.9 | 0.00 | 0.00 | 0.00 | 95 | 1019.8 |
| 20260906130006 | 17 | 10 | 0.0 | 6.4 | 0.00 | 0.00 | 0.00 | 96 | 1019.7 |
| 20260906124506 | 17 | 355 | 1.6 | 8.0 | 0.00 | 0.00 | 0.00 | 97 | 1019.7 |
| 20260906123031 | 17 | 42 | 1.6 | 6.4 | 0.00 | 0.00 | 0.00 | 96 | 1019.4 |
| 20260906121543 | 16 | 12 | 0.0 | 3.2 | 0.00 | 0.00 | 0.00 | 97 | 1019.5 |
| 20260906120022 | 16 | 17 | 0.0 | 3.2 | 0.00 | 0.00 | 0.00 | 97 | 1019.4 |
| 20260906114520 | 15 | 17 | 0.0 | 0.0 | 0.00 | 0.00 | 0.00 | 97 | 1019.1 |
| 20260906113016 | 15 | 17 | 0.0 | 0.0 | 0.00 | 0.00 | 0.00 | 96 | 1018.9 |
| 20260906111516 | 14 | 17 | 0.0 | 0.0 | 0.00 | 0.00 | 0.00 | 96 | 1018.9 |
| 20260906110014 | 14 | 17 | 0.0 | 0.0 | 0.00 | 0.00 | 0.00 | 95 | 1018.7 |
| 20260906104520 | 14 | 17 | 0.0 | 0.0 | 0.00 | 0.00 | 0.00 | 95 | 1018.6 |
| 20260906103056 | 14 | 17 | 0.0 | 0.0 | 0.00 | 0.00 | 0.00 | 95 | 1018.4 |
| 20260906101544 | 14 | 17 | 0.0 | 0.0 | 0.00 | 0.00 | 0.00 | 95 | 1018.3 |
| 20260906100045 | 14 | 17 | 0.0 | 0.0 | 0.00 | 0.00 | 0.00 | 94 | 1018.1 |
| 20260906094547 | 14 | 17 | 0.0 | 0.0 | 0.00 | 0.00 | 0.00 | 94 | 1017.9 |
| 20260906093100 | 15 | 17 | 0.0 | 0.0 | 0.00 | 0.00 | 0.00 | 94 | 1017.8 |
| 20260906091542 | 15 | 17 | 0.0 | 0.0 | 0.00 | 0.00 | 0.00 | 94 | 1017.8 |
| 20260906090030 | 15 | 17 | 0.0 | 0.0 | 0.00 | 0.00 | 0.00 | 94 | 1017.7 |
| 20260906084530 | 15 | 17 | 0.0 | 0.0 | 0.00 | 0.00 | 0.00 | 94 | 1017.4 |
| 20260906083054 | 15 | 17 | 0.0 | 0.0 | 0.00 | 0.00 | 0.00 | 94 | 1017.2 |
| 20260906081550 | 15 | 17 | 0.0 | 0.0 | 0.00 | 0.00 | 0.00 | 93 | 1017.1 |
| 20260906080100 | 15 | 17 | 0.0 | 0.0 | 0.00 | 0.00 | 0.00 | 93 | 1017.0 |
| 20260906074520 | 15 | 17 | 0.0 | 0.0 | 0.00 | 0.00 | 0.00 | 93 | 1017.2 |
| 20260906073031 | 15 | 17 | 0.0 | 0.0 | 0.00 | 0.00 | 0.00 | 93 | 1017.0 |
| 20260906071506 | 16 | 17 | 0.0 | 0.0 | 0.00 | 0.00 | 0.00 | 93 | 1016.9 |
| 20260906070003 | 16 | 17 | 0.0 | 0.0 | 0.00 | 0.00 | 0.00 | 93 | 1016.9 |
| 20260906064529 | 16 | 17 | 0.0 | 0.0 | 0.00 | 0.00 | 0.00 | 93 | 1017.0 |
| 20260906063025 | 16 | 17 | 0.0 | 0.0 | 0.00 | 0.00 | 0.00 | 93 | 1017.0 |
| 20260906061513 | 16 | 17 | 0.0 | 0.0 | 0.00 | 0.00 | 0.00 | 93 | 1016.9 |
| 20260906060001 | 16 | 17 | 0.0 | 0.0 | 0.00 | 0.00 | 0.00 | 93 | 1016.9 |
| 20260906054515 | 16 | 17 | 0.0 | 0.0 | 0.00 | 0.00 | 0.00 | 93 | 1017.0 |
| 20260906053011 | 16 | 17 | 0.0 | 0.0 | 0.00 | 0.00 | 0.00 | 93 | 1017.0 |
| 20260906051529 | 16 | 17 | 0.0 | 0.0 | 0.00 | 0.00 | 0.00 | 93 | 1016.8 |
| 20260906050021 | 16 | 17 | 0.0 | 0.0 | 0.00 | 0.00 | 0.00 | 93 | 1017.0 |
| 20260906044517 | 16 | 17 | 0.0 | 0.0 | 0.00 | 0.00 | 0.00 | 92 | 1016.9 |
| 20260906043041 | 16 | 17 | 0.0 | 0.0 | 0.00 | 0.00 | 0.00 | 92 | 1016.9 |
| 20260906041555 | 16 | 17 | 0.0 | 0.0 | 0.00 | 0.00 | 0.00 | 92 | 1016.8 |
| 20260906040111 | 16 | 17 | 0.0 | 0.0 | 0.00 | 0.00 | 0.00 | 91 | 1016.6 |
| 20260906034544 | 16 | 17 | 0.0 | 0.0 | 0.00 | 0.00 | 0.00 | 91 | 1016.7 |
| 20260906033010 | 16 | 17 | 0.0 | 0.0 | 0.00 | 0.00 | 0.00 | 91 | 1016.6 |
| 20260906031504 | 16 | 17 | 0.0 | 0.0 | 0.00 | 0.00 | 0.00 | 90 | 1016.6 |
| 20260906030009 | 16 | 17 | 0.0 | 0.0 | 0.00 | 0.00 | 0.00 | 90 | 1016.5 |
| 20260906024507 | 17 | 17 | 0.0 | 0.0 | 0.00 | 0.00 | 0.00 | 89 | 1016.4 |
| 20260906023007 | 17 | 17 | 0.0 | 0.0 | 0.00 | 0.00 | 0.00 | 88 | 1016.3 |
| 20260906021510 | 17 | 17 | 0.0 | 0.0 | 0.00 | 0.00 | 0.00 | 88 | 1016.2 |
| 20260906020011 | 17 | 17 | 0.0 | 0.0 | 0.00 | 0.00 | 0.00 | 87 | 1016.2 |
| 20260906014623 | 18 | 17 | 0.0 | 0.0 | 0.00 | 0.00 | 0.00 | 86 | 1016.2 |
| 20260906013031 | 18 | 17 | 0.0 | 0.0 | 0.00 | 0.00 | 0.00 | 86 | 1016.1 |
| 20260906011524 | 18 | 17 | 0.0 | 0.0 | 0.00 | 0.00 | 0.00 | 85 | 1016.0 |
| 20260906010032 | 18 | 17 | 0.0 | 0.0 | 0.00 | 0.00 | 0.00 | 83 | 1016.0 |
| 20260906004532 | 19 | 17 | 0.0 | 0.0 | 0.00 | 0.00 | 0.00 | 82 | 1016.0 |
| 20260906003036 | 20 | 17 | 0.0 | 1.6 | 0.00 | 0.00 | 0.00 | 81 | 1015.7 |
| 20260906001534 | 20 | 17 | 0.0 | 3.2 | 0.00 | 0.00 | 0.00 | 81 | 1015.6 |
| 20260906000042 | 20 | 17 | 0.0 | 1.6 | 0.00 | 0.00 | 0.00 | 79 | 1015.9 |
| 20260905234548 | 20 | 17 | 0.0 | 4.8 | 0.00 | 0.00 | 0.00 | 77 | 1015.8 |
| 20260905233044 | 21 | 5 | 0.0 | 4.8 | 0.00 | 0.00 | 0.00 | 76 | 1015.8 |
| 20260905231532 | 21 | 40 | 1.6 | 8.0 | 0.00 | 0.00 | 0.00 | 75 | 1015.9 |
| 20260905230028 | 21 | 14 | 3.2 | 12.9 | 0.00 | 0.00 | 0.00 | 74 | 1016.0 |
| 20260905224600 | 21 | 49 | 3.2 | 8.0 | 0.00 | 0.00 | 0.00 | 73 | 1015.8 |
| 20260905223046 | 21 | 24 | 3.2 | 8.0 | 0.00 | 0.00 | 0.00 | 72 | 1015.8 |
| 20260905221549 | 21 | 355 | 1.6 | 8.0 | 0.00 | 0.00 | 0.00 | 71 | 1015.6 |
| 20260905220053 | 22 | 5 | 1.6 | 6.4 | 0.00 | 0.00 | 0.00 | 71 | 1015.6 |
| 20260905214538 | 22 | 277 | 1.6 | 8.0 | 0.00 | 0.00 | 0.00 | 68 | 1015.5 |
| 20260905213055 | 22 | 17 | 1.6 | 9.7 | 0.00 | 0.00 | 0.00 | 67 | 1015.3 |
| 20260905211551 | 22 | 355 | 0.0 | 9.7 | 0.00 | 0.00 | 0.00 | 66 | 1015.2 |